sat.trackr.live / text

‹ back to catalog

STARLINK-3338

NORAD 50812 · 2022-001K

PAYLOAD ACTIVE UNKNOWN

§ Identity

Operator
Country
US
Launch date
2022-01-06
Launch site
AFETR
Launch vehicle
Mass (kg)
RCS (m²)

Purposes: comms

External: N2YO · Heavens-Above · Gunter

§ Orbital elements

Epoch: 2026-09-19T06:22:07.033152Z

Period
93.85 min
Inclination
53.1620°
Eccentricity
0.0001020
Mean motion
15.34387540 rev/d
Perigee alt
462.0 km
Apogee alt
463.4 km
Semi-major
6,840.9 km
B*
1.4951e-6
RAAN
1.2538°
Arg perigee
78.6776°
Mean anomaly
281.4341°
Rev number
25,988

§ Raw data

STARLINK-33381 50812U 22001K   26262.26535918 -.00000326  00000+0  14951-5 0  99942 50812  53.1620   1.2538 0001020  78.6776 281.4341 15.34387540259883

JSON: /api/v1/satellites/50812 · /tle

For live sub-satellite position, see the globe view (requires WebGL).

§ Visibility from observer

Set your observer location to see the next 7 days of passes ≥ 10°. The values pass through the URL so the page stays shareable.

No JS? Fill the form by hand. The geolocation button needs JavaScript.